Estación Meteorológica Peña el Pijo (Robertgarden) [ 09/29/20 22:17:43 CEST ]

Fecha Hora Presion(HPa) Temp (°C) Humedad % Rocio (°C) Viento ( m/s) Direccion Lluvia 1Hora(mm) Lluvia 24H(mm) LLuvia Total(mm)
2020-Apr-27 01:09:05 1003.600 - - - - W     39.88
2020-Apr-27 02:09:07 1003.700 - - - - W     39.88
2020-Apr-27 03:09:15 1003.400 - - - - W     39.88
2020-Apr-27 04:09:23 1002.900 - - - - W     39.88
2020-Apr-27 05:08:47 1003.000 - - - - W     39.88
2020-Apr-27 06:09:22 1003.100 - - - - W     39.88
2020-Apr-27 07:09:18 1003.300 - - - - W     39.88
2020-Apr-27 08:09:36 1002.900 - - - - W     39.88
2020-Apr-27 09:10:13 1003.000 - - - - W     39.88
2020-Apr-27 10:09:24 1003.100 - - - - W     39.88
2020-Apr-27 11:08:50 1003.300 - - - - W     39.88
2020-Apr-27 12:08:52 1003.200 - - - - W     39.88
2020-Apr-27 13:09:19 1002.800 - - - - W     39.88
2020-Apr-27 14:09:28 1002.600 - - - - W     39.88
2020-Apr-27 15:09:14 1003.100 - - - - W     39.88
2020-Apr-27 16:09:23 1002.300 - - - - W     39.88
2020-Apr-27 17:09:16 1002.600 - - - - W     39.88
2020-Apr-27 18:09:14 1003.600 - - - - W     39.88
2020-Apr-27 19:09:52 1003.400 - - - - W     39.88
2020-Apr-27 20:09:01 1003.400 - - - - W     39.88
2020-Apr-27 21:08:56 1003.600 - - - - W     39.88
2020-Apr-27 22:09:22 1004.100 - - - - W     39.88
2020-Apr-27 23:09:38 1004.600 - - - - W     39.88

Temperatura Máxima:    Temperatura Mínima:
Presión Máxima:1004.600 Hpa    Presión Mínima:1002.300 Hpa


Volver